GW1081 Weather Reports


Display with metric or nautical units.
time (UTC)temp
F
wind
direction
speed
MPH
gust
MPH
rain 1hr
in
rain 24hr
in
rain mn
in
humidity
%
barometer
mb
20260906215311 92 120 4.0 17.0 0.00 0.00 0.00 25 1015.5
20260906214812 93 94 9.0 17.0 0.00 0.00 0.00 24 1015.6
20260906214331 92 160 12.0 17.0 0.00 0.00 0.00 25 1015.8
20260906213851 92 131 10.0 18.0 0.00 0.00 0.00 25 1015.9
20260906213329 92 135 13.0 18.0 0.00 0.00 0.00 24 1015.8
20260906212849 93 93 8.0 13.0 0.00 0.00 0.00 24 1015.9
20260906212325 93 151 6.0 13.0 0.00 0.00 0.00 24 1015.9
20260906211825 93 149 7.0 13.0 0.00 0.00 0.00 24 1015.9
20260906211324 92 98 6.0 12.0 0.00 0.00 0.00 23 1016.1
20260906210824 93 145 8.0 12.0 0.00 0.00 0.00 23 1016.1
20260906210324 92 203 7.0 14.0 0.00 0.00 0.00 23 1016.1
20260906205824 93 139 8.0 13.0 0.00 0.00 0.00 23 1016.2
20260906205320 92 150 7.0 14.0 0.00 0.00 0.00 24 1016.4
20260906204820 92 158 9.0 14.0 0.00 0.00 0.00 24 1016.4
20260906204320 92 146 5.0 16.0 0.00 0.00 0.00 24 1016.5
20260906203820 92 200 8.0 16.0 0.00 0.00 0.00 25 1016.6
20260906203321 92 138 6.0 11.0 0.00 0.00 0.00 27 1016.6
20260906202820 92 205 2.0 11.0 0.00 0.00 0.00 26 1016.7
20260906202319 92 240 3.0 9.0 0.00 0.00 0.00 27 1016.7
20260906201838 91 156 5.0 11.0 0.00 0.00 0.00 30 1016.8
20260906201333 91 195 6.0 11.0 0.00 0.00 0.00 28 1016.9
20260906200812 91 200 4.0 14.0 0.00 0.00 0.00 29 1017.0
20260906200330 91 117 8.0 14.0 0.00 0.00 0.00 30 1017.0
20260906195811 91 214 5.0 13.0 0.00 0.00 0.00 29 1017.1
20260906195312 91 111 8.0 12.0 0.00 0.00 0.00 31 1017.2
20260906194831 91 160 6.0 13.0 0.00 0.00 0.00 31 1017.3
20260906194351 91 205 6.0 16.0 0.00 0.00 0.00 30 1017.3
20260906193829 90 155 9.0 16.0 0.00 0.00 0.00 30 1017.4
20260906193311 90 86 9.0 15.0 0.00 0.00 0.00 31 1017.5
20260906192812 90 99 9.0 15.0 0.00 0.00 0.00 30 1017.5
20260906192312 89 77 7.0 15.0 0.00 0.00 0.00 31 1017.5
20260906191830 90 163 8.0 13.0 0.00 0.00 0.00 31 1017.7
20260906191330 89 85 7.0 13.0 0.00 0.00 0.00 31 1017.7
20260906190832 89 178 7.0 12.0 0.00 0.00 0.00 31 1017.8
20260906190352 89 167 5.0 10.0 0.00 0.00 0.00 31 1017.9
20260906185849 88 236 5.0 13.0 0.00 0.00 0.00 32 1017.9
20260906185327 88 207 4.0 13.0 0.00 0.00 0.00 33 1018.0
20260906184827 88 111 1.0 13.0 0.00 0.00 0.00 34 1018.1
20260906184326 88 134 5.0 13.0 0.00 0.00 0.00 33 1018.2
20260906183846 88 203 8.0 12.0 0.00 0.00 0.00 32 1018.3
20260906183321 87 212 5.0 10.0 0.00 0.00 0.00 34 1018.3
20260906182820 87 228 6.0 10.0 0.00 0.00 0.00 34 1018.5
20260906182319 87 154 4.0 14.0 0.00 0.00 0.00 35 1018.5
20260906181818 86 126 7.0 15.0 0.00 0.00 0.00 38 1018.6
20260906181317 86 146 4.0 14.0 0.00 0.00 0.00 38 1018.7
20260906180817 85 125 9.0 15.0 0.00 0.00 0.00 38 1018.8
20260906180334 85 101 12.0 16.0 0.00 0.00 0.00 39 1018.9
20260906175813 85 139 9.0 16.0 0.00 0.00 0.00 41 1019.0
20260906175331 84 208 8.0 15.0 0.00 0.00 0.00 41 1019.2
20260906174830 84 173 8.0 15.0 0.00 0.00 0.00 42 1019.3
20260906174331 84 163 9.0 15.0 0.00 0.00 0.00 43 1019.4
20260906173850 83 170 9.0 17.0 0.00 0.00 0.00 44 1019.4
20260906173327 83 177 8.0 19.0 0.00 0.00 0.00 44 1019.5
20260906172826 82 114 13.0 20.0 0.00 0.00 0.00 45 1019.5
20260906172326 82 130 13.0 21.0 0.00 0.00 0.00 45 1019.6
20260906171824 82 127 13.0 21.0 0.00 0.00 0.00 46 1019.7
20260906171323 82 173 13.0 19.0 0.00 0.00 0.00 47 1019.7
20260906170823 82 108 14.0 19.0 0.00 0.00 0.00 47 1019.8
20260906170323 81 98 13.0 19.0 0.00 0.00 0.00 46 1019.8
20260906165822 81 97 10.0 16.0 0.00 0.00 0.00 47 1019.9
20260906165322 81 214 9.0 19.0 0.00 0.00 0.00 48 1019.9
20260906164841 80 155 10.0 19.0 0.00 0.00 0.00 48 1020.0
20260906164321 80 144 10.0 16.0 0.00 0.00 0.00 48 1020.0
20260906163822 80 139 11.0 18.0 0.00 0.00 0.00 48 1020.1
20260906163338 79 125 11.0 18.0 0.00 0.00 0.00 49 1020.1
20260906162818 79 141 12.0 18.0 0.00 0.00 0.00 49 1020.1
20260906162338 79 165 10.0 22.0 0.00 0.00 0.00 49 1020.3
20260906161816 79 172 14.0 21.0 0.00 0.00 0.00 48 1020.3
20260906161316 79 129 10.0 20.0 0.00 0.00 0.00 50 1020.3
20260906160813 78 180 13.0 22.0 0.00 0.00 0.00 50 1020.5
20260906160313 78 150 14.0 23.0 0.00 0.00 0.00 51 1020.6
20260906155812 77 162 17.0 24.0 0.00 0.00 0.00 51 1020.6
20260906155332 77 167 15.0 24.0 0.00 0.00 0.00 51 1020.5
20260906154830 77 159 11.0 23.0 0.00 0.00 0.00 52 1020.5
20260906154350 76 145 12.0 23.0 0.00 0.00 0.00 53 1020.6
20260906153830 76 167 14.0 22.0 0.00 0.00 0.00 52 1020.6
20260906153330 76 167 10.0 24.0 0.00 0.00 0.00 53 1020.5
20260906152831 75 143 13.0 24.0 0.00 0.00 0.00 54 1020.6
20260906152330 75 138 16.0 27.0 0.00 0.00 0.00 54 1020.5
20260906151849 75 149 13.0 27.0 0.00 0.00 0.00 55 1020.6
20260906151327 75 119 14.0 22.0 0.00 0.00 0.00 56 1020.6
20260906150826 75 157 13.0 24.0 0.00 0.00 0.00 57 1020.5
20260906150326 75 127 15.0 23.0 0.00 0.00 0.00 56 1020.5
20260906145825 74 145 10.0 24.0 0.00 0.00 0.00 57 1020.6
20260906145326 74 120 14.0 24.0 0.00 0.00 0.00 57 1020.5
20260906144824 74 129 9.0 18.0 0.00 0.00 0.00 58 1020.6
20260906144323 74 124 10.0 21.0 0.00 0.00 0.00 59 1020.5
20260906143823 73 136 11.0 21.0 0.00 0.00 0.00 59 1020.6
20260906143323 73 128 8.0 20.0 0.00 0.00 0.00 61 1020.5
20260906142824 72 148 11.0 24.0 0.00 0.00 0.00 61 1020.4
20260906142323 72 152 10.0 18.0 0.00 0.00 0.00 61 1020.5
20260906141844 71 148 9.0 18.0 0.00 0.00 0.00 62 1020.4
20260906141323 71 127 7.0 18.0 0.00 0.00 0.00 63 1020.4
20260906140844 70 152 9.0 18.0 0.00 0.00 0.00 64 1020.4
20260906140323 70 135 7.0 14.0 0.00 0.00 0.00 64 1020.4
20260906135823 69 143 6.0 14.0 0.00 0.00 0.00 65 1020.4
20260906135322 69 159 10.0 14.0 0.00 0.00 0.00 65 1020.4
20260906134843 68 158 7.0 10.0 0.00 0.00 0.00 67 1020.3
20260906134341 68 165 5.0 12.0 0.00 0.00 0.00 68 1020.4
20260906133822 67 175 8.0 12.0 0.00 0.00 0.00 69 1020.4
20260906133322 67 202 7.0 12.0 0.00 0.00 0.00 69 1020.4
20260906132843 67 203 5.0 13.0 0.00 0.00 0.00 70 1020.3
20260906132321 66 207 5.0 13.0 0.00 0.00 0.00 70 1020.3
20260906131838 66 188 5.0 10.0 0.00 0.00 0.00 70 1020.3
20260906131317 66 184 6.0 10.0 0.00 0.00 0.00 71 1020.2
20260906130818 66 187 5.0 10.0 0.00 0.00 0.00 71 1020.2
20260906130338 66 205 5.0 10.0 0.00 0.00 0.00 72 1020.3
20260906125817 65 139 6.0 10.0 0.00 0.00 0.00 72 1020.2
20260906125318 65 169 5.0 9.0 0.00 0.00 0.00 73 1020.2
20260906124818 65 150 5.0 9.0 0.00 0.00 0.00 73 1020.1
20260906124317 65 153 5.0 10.0 0.00 0.00 0.00 74 1020.1
20260906123817 64 217 6.0 10.0 0.00 0.00 0.00 73 1020.1
20260906123317 65 205 5.0 11.0 0.00 0.00 0.00 73 1020.1
20260906122815 65 224 8.0 11.0 0.00 0.00 0.00 73 1020.1
20260906122316 65 194 7.0 10.0 0.00 0.00 0.00 72 1019.9
20260906121816 65 162 7.0 11.0 0.00 0.00 0.00 72 1020.0
20260906121315 65 167 7.0 11.0 0.00 0.00 0.00 71 1020.1
20260906120834 66 153 7.0 13.0 0.00 0.00 0.00 71 1020.2
20260906120312 66 191 6.0 13.0 0.00 0.00 0.00 71 1020.2
20260906115813 66 216 7.0 11.0 0.00 0.00 0.00 71 1020.1
20260906115314 66 181 6.0 11.0 0.00 0.00 0.00 70 1020.1
20260906114815 66 206 6.0 10.0 0.00 0.00 0.00 70 1020.1
20260906114314 66 185 5.0 13.0 0.00 0.00 0.00 69 1020.1
20260906113813 67 174 6.0 13.0 0.00 0.00 0.00 69 1020.0
20260906113312 67 193 6.0 12.0 0.00 0.00 0.00 68 1019.9
20260906112833 67 209 7.0 12.0 0.00 0.00 0.00 68 1019.9
20260906112314 68 162 7.0 13.0 0.00 0.00 0.00 68 1019.8
20260906111834 68 142 8.0 16.0 0.00 0.00 0.00 68 1019.8
20260906111313 68 201 8.0 14.0 0.00 0.00 0.00 68 1019.8
20260906110812 68 212 6.0 11.0 0.00 0.00 0.00 67 1019.8
20260906110312 68 177 7.0 12.0 0.00 0.00 0.00 67 1019.8
20260906105813 68 150 7.0 14.0 0.00 0.00 0.00 67 1019.7
20260906105333 69 183 7.0 14.0 0.00 0.00 0.00 66 1019.8
20260906104813 69 141 7.0 12.0 0.00 0.00 0.00 66 1019.8
20260906104314 69 172 8.0 12.0 0.00 0.00 0.00 66 1019.8
20260906103834 69 181 7.0 12.0 0.00 0.00 0.00 67 1019.8
20260906103313 69 197 7.0 12.0 0.00 0.00 0.00 67 1019.8
20260906102814 69 155 6.0 11.0 0.00 0.00 0.00 66 1019.8
20260906102313 69 165 6.0 11.0 0.00 0.00 0.00 66 1019.9
20260906101813 69 201 5.0 12.0 0.00 0.00 0.00 66 1020.0
20260906101314 69 136 6.0 16.0 0.00 0.00 0.00 66 1020.0
20260906100817 69 146 8.0 16.0 0.00 0.00 0.00 67 1019.8
20260906100338 69 214 6.0 10.0 0.00 0.00 0.00 67 1019.8
20260906095817 69 216 5.0 10.0 0.00 0.00 0.00 68 1019.9
20260906095318 69 158 6.0 12.0 0.00 0.00 0.00 68 1019.9
20260906094818 68 201 5.0 12.0 0.00 0.00 0.00 68 1019.9
20260906094319 68 162 4.0 10.0 0.00 0.00 0.00 68 1020.0
20260906093820 68 198 5.0 8.0 0.00 0.00 0.00 68 1020.0
20260906093318 68 148 5.0 8.0 0.00 0.00 0.00 69 1020.0
20260906092819 68 219 4.0 6.0 0.00 0.00 0.00 69 1019.9
20260906092320 68 193 3.0 4.0 0.00 0.00 0.00 69 1019.8
20260906091821 68 172 2.0 6.0 0.00 0.00 0.00 68 1019.7
20260906091321 68 208 3.0 7.0 0.00 0.00 0.00 68 1019.7
20260906090823 68 149 4.0 6.0 0.00 0.00 0.00 69 1019.8
20260906090324 67 200 3.0 5.0 0.00 0.00 0.00 70 1019.8
20260906085845 67 156 3.0 5.0 0.00 0.00 0.00 72 1019.8
20260906085324 67 142 2.0 4.0 0.00 0.00 0.00 70 1019.9
20260906084824 68 135 3.0 4.0 0.00 0.00 0.00 69 1019.8
20260906084323 68 120 3.0 5.0 0.00 0.00 0.00 68 1019.9
20260906083823 68 148 4.0 5.0 0.00 0.00 0.00 68 1019.8
20260906083342 69 136 4.0 4.0 0.00 0.00 0.00 68 1019.9
20260906082819 69 108 2.0 5.0 0.00 0.00 0.00 63 1019.9
20260906082317 69 148 3.0 6.0 0.00 0.00 0.00 65 1019.8
20260906081817 69 159 3.0 8.0 0.00 0.00 0.00 64 1019.8
20260906081317 69 195 3.0 8.0 0.00 0.00 0.00 63 1020.0
20260906080816 69 159 3.0 7.0 0.00 0.00 0.00 63 1020.0
20260906080316 69 150 3.0 5.0 0.00 0.00 0.00 62 1020.0
20260906075814 70 186 3.0 5.0 0.00 0.00 0.00 61 1020.0
20260906075312 70 146 3.0 5.0 0.00 0.00 0.00 60 1020.1
20260906074833 70 126 2.0 4.0 0.00 0.00 0.00 61 1020.1
20260906074326 71 132 2.0 5.0 0.00 0.00 0.00 58 1020.2
20260906073842 71 139 3.0 6.0 0.00 0.00 0.00 58 1020.2
20260906073340 71 139 3.0 5.0 0.00 0.00 0.00 57 1020.3
20260906072819 71 137 2.0 4.0 0.00 0.00 0.00 56 1020.3
20260906072318 71 155 2.0 3.0 0.00 0.00 0.00 55 1020.4
20260906071817 71 132 1.0 2.0 0.00 0.00 0.00 54 1020.3
20260906071316 72 148 1.0 3.0 0.00 0.00 0.00 53 1020.3
20260906070815 72 148 2.0 3.0 0.00 0.00 0.00 52 1020.3
20260906070312 73 113 2.0 5.0 0.00 0.00 0.00 51 1020.2
20260906065831 73 131 4.0 5.0 0.00 0.00 0.00 51 1020.3
20260906065351 73 200 2.0 5.0 0.00 0.00 0.00 51 1020.3
20260906064831 73 205 3.0 7.0 0.00 0.00 0.00 51 1020.4
20260906064331 73 193 3.0 8.0 0.00 0.00 0.00 50 1020.3
20260906063812 73 200 3.0 9.0 0.00 0.00 0.00 50 1020.3
20260906063331 73 193 4.0 9.0 0.00 0.00 0.00 49 1020.4
20260906062813 73 217 5.0 9.0 0.00 0.00 0.00 47 1020.4
20260906062314 73 151 6.0 9.0 0.00 0.00 0.00 45 1020.4
20260906061814 72 193 4.0 7.0 0.00 0.00 0.00 45 1020.5
20260906061312 71 208 3.0 5.0 0.00 0.00 0.00 45 1020.6
20260906060831 70 204 1.0 2.0 0.00 0.00 0.00 46 1020.6
20260906060312 70 219 0.0 3.0 0.00 0.00 0.00 48 1020.5
20260906055812 71 219 0.0 3.0 0.00 0.00 0.00 53 1020.4
20260906055332 71 203 2.0 2.0 0.00 0.00 0.00 53 1020.4
20260906054831 71 203 0.0 1.0 0.00 0.00 0.00 48 1020.4
20260906054312 71 203 0.0 1.0 0.00 0.00 0.00 46 1020.4
20260906053833 71 203 0.0 2.0 0.00 0.00 0.00 47 1020.3
20260906053352 71 203 2.0 2.0 0.00 0.00 0.00 52 1020.3
20260906052851 72 150 1.0 2.0 0.00 0.00 0.00 52 1020.4
20260906052330 73 150 1.0 2.0 0.00 0.00 0.00 44 1020.3
20260906051849 73 104 0.0 1.0 0.00 0.00 0.00 41 1020.2
20260906051348 74 355 1.0 1.0 0.00 0.00 0.00 40 1020.2
20260906050827 74 349 0.0 1.0 0.00 0.00 0.00 38 1020.2
20260906050328 75 349 0.0 1.0 0.00 0.00 0.00 38 1020.2
20260906045827 75 349 0.0 1.0 0.00 0.00 0.00 37 1020.2
20260906045326 75 306 0.0 2.0 0.00 0.00 0.00 36 1020.1
20260906044827 75 307 0.0 3.0 0.00 0.00 0.00 36 1020.2
20260906044327 75 307 2.0 3.0 0.00 0.00 0.00 36 1020.2
20260906043827 75 347 1.0 3.0 0.00 0.00 0.00 36 1020.2
20260906043346 75 347 1.0 3.0 0.00 0.00 0.00 36 1020.2
20260906042847 75 344 0.0 2.0 0.00 0.00 0.00 35 1020.2
20260906042326 75 344 0.0 2.0 0.00 0.00 0.00 35 1020.1
20260906041827 76 344 1.0 2.0 0.00 0.00 0.00 34 1020.0
20260906041325 76 344 0.0 2.0 0.00 0.00 0.00 34 1020.0
20260906040827 76 344 1.0 3.0 0.00 0.00 0.00 34 1020.0
20260906040328 76 344 1.0 3.0 0.00 0.00 0.00 34 1020.1
20260906035828 76 344 2.0 3.0 0.00 0.00 0.00 33 1020.1
20260906035328 76 316 1.0 2.0 0.00 0.00 0.00 32 1020.1
20260906034829 76 315 1.0 3.0 0.00 0.00 0.00 32 1020.1
20260906034328 77 315 1.0 3.0 0.00 0.00 0.00 32 1020.0
20260906033829 77 7 1.0 2.0 0.00 0.00 0.00 32 1020.0
20260906033330 77 11 2.0 2.0 0.00 0.00 0.00 32 1020.0
20260906032829 77 12 1.0 2.0 0.00 0.00 0.00 32 1020.0
20260906032312 77 12 1.0 2.0 0.00 0.00 0.00 33 1020.0
20260906031815 77 12 0.0 2.0 0.00 0.00 0.00 33 1020.0
20260906031317 78 12 1.0 2.0 0.00 0.00 0.00 33 1020.0
20260906030817 78 12 2.0 2.0 0.00 0.00 0.00 32 1020.0
20260906030339 79 12 0.0 1.0 0.00 0.00 0.00 31 1019.9
20260906025820 79 12 0.0 1.0 0.00 0.00 0.00 30 1019.8
20260906025321 79 12 0.0 3.0 0.00 0.00 0.00 30 1019.8
20260906024837 80 12 1.0 4.0 0.00 0.00 0.00 30 1019.6
20260906024317 80 347 1.0 5.0 0.00 0.00 0.00 30 1019.3
20260906023819 81 344 3.0 8.0 0.00 0.00 0.00 29 1019.2
20260906023321 81 354 4.0 9.0 0.00 0.00 0.00 28 1019.2
20260906022820 82 354 4.0 8.0 0.00 0.00 0.00 28 1019.1
20260906022318 82 27 5.0 8.0 0.00 0.00 0.00 28 1019.0
20260906021817 82 353 4.0 8.0 0.00 0.00 0.00 28 1018.9
20260906021315 82 334 3.0 7.0 0.00 0.00 0.00 28 1019.0
20260906020817 82 33 3.0 6.0 0.00 0.00 0.00 27 1018.9
20260906020317 83 32 3.0 7.0 0.00 0.00 0.00 26 1018.8
20260906015837 83 352 3.0 7.0 0.00 0.00 0.00 26 1018.8
20260906015315 83 327 3.0 6.0 0.00 0.00 0.00 29 1018.7
20260906014814 84 27 4.0 7.0 0.00 0.00 0.00 28 1018.8
20260906014332 84 37 5.0 11.0 0.00 0.00 0.00 26 1018.7
20260906013811 85 23 6.0 11.0 0.00 0.00 0.00 26 1018.7
20260906013309 85 36 7.0 11.0 0.00 0.00 0.00 24 1018.6
20260906012828 85 32 6.0 10.0 0.00 0.00 0.00 25 1018.6
20260906012328 86 18 7.0 10.0 0.00 0.00 0.00 24 1018.7
20260906011829 86 347 7.0 12.0 0.00 0.00 0.00 24 1018.6
20260906011329 86 27 6.0 12.0 0.00 0.00 0.00 24 1018.6
20260906010811 87 312 6.0 10.0 0.00 0.00 0.00 23 1018.6
20260906010312 87 33 7.0 13.0 0.00 0.00 0.00 23 1018.6
20260906005813 87 337 7.0 13.0 0.00 0.00 0.00 22 1018.6
20260906005313 88 24 6.0 13.0 0.00 0.00 0.00 22 1018.5
20260906004812 88 23 6.0 13.0 0.00 0.00 0.00 22 1018.5
20260906004311 88 77 8.0 12.0 0.00 0.00 0.00 22 1018.4
20260906003813 88 29 6.0 11.0 0.00 0.00 0.00 22 1018.5
20260906003331 89 4 7.0 12.0 0.00 0.00 0.00 21 1018.5
20260906002811 89 349 7.0 11.0 0.00 0.00 0.00 21 1018.4
20260906002310 89 27 8.0 12.0 0.00 0.00 0.00 20 1018.6
20260906001812 89 333 7.0 12.0 0.00 0.00 0.00 21 1018.5
20260906001333 89 339 7.0 11.0 0.00 0.00 0.00 21 1018.6
20260906000809 89 27 5.0 10.0 0.00 0.00 0.00 21 1018.6
20260906000311 90 39 7.0 9.0 0.00 0.00 0.00 20 1018.6
20260905235810 90 26 4.0 9.0 0.00 0.00 0.00 20 1018.6
20260905235357 90 345 4.0 9.0 0.00 0.00 0.00 20 1018.6
20260905234812 90 338 5.0 8.0 0.00 0.00 0.00 19 1018.5
20260905234312 90 24 3.0 5.0 0.00 0.00 0.00 19 1018.6
20260905233815 91 350 2.0 4.0 0.00 0.00 0.00 19 1018.5
20260905233315 91 334 2.0 4.0 0.00 0.00 0.00 19 1018.5
20260905232834 91 18 2.0 4.0 0.00 0.00 0.00 19 1018.4
20260905232317 91 19 3.0 5.0 0.00 0.00 0.00 18 1018.4
20260905231819 91 16 3.0 5.0 0.00 0.00 0.00 18 1018.3
20260905231318 92 333 2.0 5.0 0.00 0.00 0.00 17 1018.2
20260905230819 92 314 1.0 7.0 0.00 0.00 0.00 17 1018.3
20260905230318 92 285 5.0 8.0 0.00 0.00 0.00 18 1018.3
20260905225819 92 276 5.0 8.0 0.00 0.00 0.00 18 1018.3
20260905225340 92 255 2.0 11.0 0.00 0.00 0.00 18 1018.4
20260905224821 92 246 6.0 11.0 0.00 0.00 0.00 18 1018.3
20260905224341 91 222 2.0 11.0 0.00 0.00 0.00 18 1018.4
20260905223820 91 225 7.0 11.0 0.00 0.00 0.00 17 1018.3
20260905223318 91 219 4.0 10.0 0.00 0.00 0.00 17 1018.3
20260905222833 91 285 5.0 10.0 0.00 0.00 0.00 17 1018.3
20260905222312 92 226 5.0 10.0 0.00 0.00 0.00 17 1018.4
20260905221815 92 205 4.0 12.0 0.00 0.00 0.00 17 1018.4
20260905221315 93 199 6.0 12.0 0.00 0.00 0.00 17 1018.5
20260905220813 93 192 6.0 11.0 0.00 0.00 0.00 17 1018.5
20260905220314 93 221 4.0 12.0 0.00 0.00 0.00 17 1018.6
20260905215815 93 243 5.0 12.0 0.00 0.00 0.00 17 1018.4